DELTA 1 R/B, 1433

Orbit data source: Space-Track

DELTA 1 R/B, 1433 is space debris in SSO originally from a launch on Fri, 02 Jul 1965 UTC launched from the Air Force Eastern Test Range (AFETR). Debris objects in space refer to the collection of defunct objects orbiting the Earth. Examples of debris include non-operational satellites, rocket bodies, and fragments generated from explosions, collisions, or faulty payload assembly.

Loading next visibility...
Identifier
1433, 1965-051B
Orbit
SSO
Country
Flag of USUS
Related business
Manufacturer
ABL
Mission
Spacecraft
Bus & Motor
ALTAIR, Unknown motor
Mass
60 kg wet, 60 kg dry
Launch date (UTC)
1965-07-02 (61 years ago)
Launch vehicle
Unknown
Launch site
Air Force Eastern Test Range (AFETR)
Object type
Payload
Rocket body
Debris
Shape & HBR
Unknown
Radar Cross Section
Medium (>0.1 m² and <1 m²)

Expand to show TLE details & history
Last TLE update: 11 hours ago

TLE from 11 hours ago
0 DELTA 1 R/B
1 01433U 65051B   26095.36494344  .00001764  00000-0  35380-3 0  9997
2 01433  98.5651 252.0272 0039659 138.9229 221.4969 14.62569591184186
Epoch: 2026-04-05T08:45Z
TLE epoch observation values (Epoch: 2026-04-05T08:45:31.113Z)
Latitude
-0.00004°
Longitude
-73.02385°
Altitude
708.9 km
Speed
7.49 km/s
True Right ascension
16h 48m 06s
True Declination
0° 00' 00"
Sunlit
Object was in full shadow at epoch
Visualization orbit readout
Latitude
Unknown
Longitude
Unknown
Altitude
Unknown
Speed
Unknown
Apparent Right ascension
Unknown
Apparent Declination
Unknown
Sunlit
N/A
Visualization observer readout
Local Sidereal Time
01:43:42
Azimuth
Unknown
Elevation
Unknown
Doppler factor
Unknown
Orbital elements
Apogee altitude
709.984 km
Perigee altitude
653.984 km
Semi-major axis
7,060.121 km
Eccentricity
0.00397
Inclination
98.5651°
RAAN
252.0272°
Arg. of periapsis
138.9229°
True anomaly
221.1969°
Mean anomaly
221.4969°
Eccentric anomaly
221.34679°
Mean motion
3.65868 °/min
Orbital period
98.4 mins
BSTAR
0.0003538
Loading maneuver chart data...
Computing Atmospheric mass density...
Loading historical data...
Loading historical data...
Loading historical data...
Loading historical data...
Loading historical data...
Loading historical data...
Loading historical data...
Other satellites on launch #51 in the year 1965 (1965-07-02 UTC)

Documentation

Showing up to 5 results
|